Wind_Speed
6 8 9 10 12 11 12 13 12 13 14 15 14 11 11 12 16 25 31 39 40 41 37 36 30 28 25 24 19 20 17 8 6 9 7 12 14 15 17 22 27 28 32 33 33
8 10 11 12 13 13 12 14 16 18 17 16 15 16 15 15 15 18 25 34 40 42 42 39 34 29 28 26 22 22 18 11 6 9 13 12 12 14 14 22 24 27 26 31 33
9 11 12 13 12 13 14 15 16 18 19 20 19 21 20 18 19 19 20 27 38 43 44 42 39 34 31 29 28 26 21 16 6 9 12 13 12 10 13 20 21 23 22 26 31
13 13 14 13 15 16 17 17 20 21 22 23 24 25 25 25 23 22 22 25 30 41 45 47 42 39 35 34 31 31 26 22 13 10 12 11 11 11 14 15 19 20 22 20 25
15 15 15 17 17 18 20 24 24 25 25 24 25 26 29 29 27 27 25 26 27 36 44 48 47 44 42 39 36 36 32 26 20 14 9 9 13 10 10 12 16 17 21 20 21
15 17 18 19 20 23 24 26 27 28 29 30 31 31 29 31 31 33 31 30 32 33 38 47 49 48 47 43 41 39 36 33 26 24 12 13 9 9 7 7 11 15 18 20 20
15 18 20 22 24 26 29 31 31 33 34 36 38 38 39 35 34 36 37 33 31 34 39 41 48 53 52 50 45 44 41 38 32 25 24 21 17 12 9 4 6 14 17 18 18
20 22 25 28 30 31 33 33 35 36 38 39 41 41 41 38 36 34 36 37 36 33 40 41 43 53 58 56 52 48 45 40 35 33 30 24 22 17 9 3 4 12 15 15 16
26 26 28 32 34 34 35 36 38 40 42 42 44 43 42 40 34 34 37 38 39 38 42 45 42 49 62 62 57 53 48 45 42 34 36 27 23 20 13 7 4 4 12 10 16
28 30 32 34 34 35 36 36 37 40 42 42 44 45 43 37 34 36 38 41 44 42 40 49 48 49 61 69 62 58 53 48 43 38 38 33 27 22 21 13 8 3 8 7 10
31 33 34 37 38 39 40 40 42 45 43 44 45 43 39 34 35 37 37 37 40 42 44 51 54 59 61 68 66 62 57 51 48 44 42 37 31 25 24 19 12 6 2 9 11
34 34 37 40 41 42 43 44 43 42 40 43 43 42 39 36 34 36 35 37 40 42 43 50 60 61 62 68 70 67 63 57 51 49 46 42 35 28 27 22 17 11 5 8 12
36 37 41 42 45 44 44 43 41 39 37 35 34 35 32 30 32 35 37 41 46 50 52 58 63 63 63 66 73 74 67 61 56 53 49 45 41 34 30 27 21 15 11 6 8
39 40 42 44 45 45 43 41 37 34 32 27 27 28 28 29 33 38 43 44 47 52 53 62 67 64 65 67 73 77 73 68 62 59 55 48 45 40 33 31 24 20 15 11 5
44 43 45 46 44 43 42 37 33 30 26 25 25 27 30 33 36 35 33 33 39 45 52 67 78 72 68 73 71 79 77 72 67 63 58 53 47 44 37 33 28 24 20 15 10
43 42 43 44 40 41 36 30 26 23 24 23 27 32 35 38 40 34 27 26 27 36 44 56 79 83 79 76 75 76 78 77 71 68 61 57 50 50 43 38 33 25 23 20 13
37 37 40 37 36 30 24 21 21 19 20 26 29 31 34 37 37 39 35 31 20 25 32 45 61 81 83 81 80 77 78 79 73 72 66 61 57 51 50 45 38 32 27 23 20
33 34 34 30 19 17 15 14 16 19 22 27 31 32 33 35 36 41 39 39 22 19 21 38 50 74 86 86 85 80 78 80 77 75 72 64 61 56 52 48 43 34 33 28 26
30 31 31 21 17 18 19 18 19 21 22 24 27 33 32 35 32 40 41 39 27 17 18 31 45 62 84 88 86 83 78 82 80 80 75 68 63 60 55 52 46 41 36 36 36
32 31 29 21 21 23 25 25 25 23 24 26 25 31 33 32 33 34 38 39 41 20 16 23 40 57 79 87 87 86 81 81 81 81 79 71 69 66 64 61 53 49 45 44 39
37 33 28 24 25 27 29 31 29 26 26 26 27 31 32 31 30 32 33 37 46 30 17 18 29 57 77 85 88 86 82 77 80 79 82 76 73 68 66 63 60 55 51 48 43
32 30 28 24 25 28 29 32 30 27 27 29 27 33 33 33 25 25 30 35 41 42 21 18 24 51 75 85 87 87 84 78 82 85 85 78 74 71 67 65 63 59 56 53 48
28 30 27 25 26 29 31 33 31 31 29 30 30 31 31 34 30 26 24 30 38 40 29 22 24 38 71 87 88 88 84 82 78 89 87 81 74 72 70 67 65 64 62 58 54
25 27 25 29 31 32 32 33 32 30 32 31 30 30 30 34 33 29 27 27 35 35 39 25 26 39 61 86 91 89 87 84 88 88 86 83 77 72 74 72 69 67 65 60 58
30 27 30 32 36 38 38 38 35 30 30 31 31 32 32 35 35 31 30 27 32 37 41 29 29 37 56 81 90 89 90 86 86 87 90 86 82 79 76 76 74 71 68 64 61
37 37 36 37 41 44 43 44 40 35 34 35 34 33 35 35 35 32 29 32 32 35 41 33 28 34 53 75 88 89 91 89 88 89 90 89 83 83 77 76 75 75 71 65 64
32 33 34 35 36 42 44 44 40 37 36 36 39 36 34 37 35 35 35 34 34 37 39 44 27 36 43 69 87 89 89 90 90 91 90 89 77 86 82 78 78 77 74 72 69
Wind_Direction
273 262 263 277 290 285 280 283 284 299 297 293 291 273 271 270 243 231 229 228 225 222 220 223 223 224 219 222 219 202 210 186 192 213 231 299 342 5 17 26 26 34 46 46 47
278 272 275 275 279 278 282 286 285 295 297 295 291 273 276 270 258 244 231 228 223 224 220 219 221 223 220 220 212 216 215 213 221 213 231 261 319 350 22 30 27 32 49 52 50
281 284 280 276 285 291 297 296 294 293 291 291 288 286 284 278 258 255 244 236 226 223 221 218 215 219 222 215 212 215 215 217 189 213 228 259 280 343 3 24 26 30 37 52 56
286 280 274 281 295 297 295 296 298 292 291 294 291 288 283 278 273 254 246 239 233 225 222 217 213 215 217 218 213 214 215 211 194 212 225 254 271 307 354 11 24 29 31 48 49
283 280 279 286 291 295 295 296 296 290 290 293 294 293 289 283 274 263 247 238 237 235 224 218 215 211 214 216 215 215 213 195 199 205 216 224 262 301 338 356 17 33 28 39 47
282 279 283 288 292 293 292 290 288 284 282 288 290 291 293 288 275 266 258 245 238 237 234 221 213 213 212 214 215 216 218 206 213 217 208 229 219 233 296 334 7 35 34 33 45
281 288 288 287 287 288 289 289 285 285 283 283 286 287 287 293 277 262 259 255 245 236 232 225 216 213 212 211 212 215 217 216 216 202 207 198 208 220 267 29 12 39 41 33 48
283 286 286 287 287 286 286 287 286 284 283 284 284 284 286 289 282 266 255 254 248 240 227 222 215 215 213 210 210 213 216 215 212 210 211 216 226 221 242 141 86 44 45 31 48
286 288 291 291 290 289 288 287 287 284 285 286 285 285 281 283 278 266 261 255 249 244 228 223 221 215 214 212 210 210 215 214 215 213 214 214 221 221 225 206 124 53 53 32 39
289 294 295 293 294 293 293 288 292 293 289 287 284 282 284 280 275 266 262 257 252 246 232 226 221 218 217 211 209 211 214 213 213 217 215 214 222 218 213 223 194 180 65 60 40
292 294 295 295 295 296 294 291 288 293 294 290 286 289 287 282 280 275 269 251 244 240 235 223 220 219 220 212 209 210 212 211 211 210 214 214 217 216 219 222 200 203 81 93 73
295 298 299 299 296 294 296 296 295 293 294 292 290 289 287 287 284 277 267 254 237 232 236 232 225 221 220 213 208 208 210 209 207 208 213 213 215 214 218 215 197 208 206 119 95
299 299 299 299 297 298 299 299 300 300 298 294 292 289 298 295 290 282 274 258 245 235 241 236 228 224 219 217 209 207 208 208 208 209 210 213 211 214 215 217 203 206 203 184 156
298 302 302 300 300 300 300 300 302 301 300 299 298 303 305 303 302 301 287 274 256 250 239 222 222 222 216 216 211 208 206 206 206 209 208 211 211 213 208 216 209 203 203 205 164
298 299 300 301 301 299 300 303 302 302 305 306 305 307 313 317 320 316 290 279 261 248 238 218 209 210 214 213 211 208 206 206 206 208 207 208 210 210 203 219 212 205 194 199 208
297 299 299 300 303 302 303 303 297 302 304 306 313 317 322 328 332 331 320 308 275 254 241 223 212 204 205 209 210 207 205 205 206 209 207 207 209 208 204 216 214 206 194 197 197
298 298 297 303 306 309 308 304 303 306 308 311 318 320 323 325 334 343 342 337 298 265 243 220 211 208 200 201 206 206 202 203 204 208 206 204 211 211 207 212 213 210 198 197 201
300 297 297 304 306 319 323 323 320 318 313 314 316 319 319 326 337 342 348 350 323 287 244 218 209 206 199 198 200 204 201 200 202 207 208 203 206 208 204 210 215 208 201 203 206
293 292 295 290 297 310 307 313 311 311 309 312 316 316 317 324 336 341 349 350 336 312 270 220 209 200 200 199 198 199 199 198 201 206 206 204 205 207 205 209 210 212 208 201 207
285 286 288 273 281 298 306 308 307 304 306 309 322 318 319 319 330 339 348 353 357 323 283 236 214 200 196 202 200 198 198 197 201 205 203 202 206 208 211 215 213 213 215 218 218
286 281 278 265 274 289 300 304 303 297 301 304 310 312 329 323 324 339 349 355 357 346 298 256 222 203 194 199 202 199 198 198 199 204 201 202 206 207 212 214 214 214 218 223 216
286 276 271 262 274 287 295 303 299 296 296 301 307 311 314 331 316 331 340 347 349 351 313 265 236 208 193 195 200 199 198 195 202 203 203 203 206 207 210 213 214 215 215 220 216
290 278 269 260 277 288 293 295 300 297 298 296 298 308 312 318 315 317 330 342 345 344 328 279 237 217 198 194 197 199 198 195 195 203 203 204 207 207 209 212 214 214 217 217 218
288 280 267 268 275 282 289 294 293 295 299 292 291 291 307 310 315 304 318 333 336 338 340 291 252 218 206 197 195 199 199 200 202 204 204 206 205 207 208 209 212 214 215 217 221
273 268 266 270 275 280 286 290 292 287 295 299 295 291 292 304 308 311 308 324 331 329 333 311 260 229 209 200 197 200 201 202 203 204 205 205 206 206 209 209 212 214 214 216 219
277 273 272 272 273 278 282 286 290 287 290 296 296 305 285 290 300 308 301 313 323 327 328 321 263 240 216 204 202 200 203 203 204 206 207 206 208 206 207 211 212 213 213 214 219
285 281 283 283 285 287 284 284 282 283 288 292 300 301 290 281 292 306 303 298 311 323 326 323 270 240 222 210 204 202 202 206 206 208 209 206 201 212 211 212 213 212 213 212 219
Height
10928 10929 10929 10928 10928 10928 10928 10927 10927 10927 10926 10926 10926 10927 10928 10928 10929 10930 10933 10936 10942 10947 10952 10956 10962 10966 10972 10975 10979 10980 10982 10983 10983 10982 10981 10981 10984 10982 10980 10977 10971 10965 10961 10955 10949
10926 10926 10926 10925 10925 10925 10925 10924 10924 10923 10923 10923 10923 10923 10924 10925 10925 10926 10928 10930 10936 10940 10945 10950 10958 10963 10968 10972 10976 10979 10981 10981 10982 10983 10982 10982 10983 10983 10982 10979 10973 10969 10966 10959 10954
10924 10923 10923 10922 10922 10922 10921 10921 10920 10919 10919 10919 10919 10919 10919 10920 10921 10922 10923 10925 10928 10933 10938 10945 10952 10958 10964 10968 10972 10975 10979 10981 10981 10982 10981 10982 10984 10985 10982 10981 10977 10973 10968 10964 10960
10921 10920 10919 10919 10919 10918 10918 10917 10916 10915 10914 10914 10914 10914 10914 10914 10916 10917 10918 10919 10921 10926 10931 10939 10946 10953 10958 10962 10967 10971 10975 10979 10980 10980 10982 10982 10985 10985 10982 10982 10980 10976 10972 10969 10965
10917 10917 10916 10916 10915 10914 10913 10912 10910 10909 10908 10908 10908 10907 10906 10908 10909 10910 10911 10913 10916 10919 10924 10931 10940 10945 10949 10956 10961 10965 10971 10974 10976 10978 10981 10984 10983 10983 10983 10984 10982 10979 10975 10972 10968
10913 10913 10912 10912 10911 10909 10907 10906 10904 10903 10902 10901 10900 10900 10900 10900 10901 10900 10902 10905 10909 10912 10916 10924 10931 10936 10941 10948 10955 10961 10966 10971 10974 10977 10981 10983 10984 10984 10984 10985 10983 10981 10977 10974 10972
10910 10909 10908 10906 10905 10903 10901 10899 10898 10896 10895 10894 10892 10892 10892 10891 10891 10890 10891 10895 10900 10904 10908 10914 10920 10925 10932 10940 10947 10954 10959 10965 10970 10974 10979 10982 10982 10983 10985 10986 10984 10982 10980 10979 10978
10905 10903 10902 10900 10898 10896 10894 10892 10890 10888 10886 10886 10884 10882 10880 10881 10880 10879 10880 10884 10888 10893 10899 10904 10910 10913 10922 10928 10938 10946 10953 10960 10965 10970 10975 10979 10981 10983 10985 10988 10986 10985 10983 10982 10981
10899 10898 10895 10892 10889 10888 10886 10884 10882 10879 10877 10876 10873 10871 10871 10871 10870 10869 10869 10873 10877 10882 10888 10894 10900 10904 10907 10916 10928 10937 10945 10953 10959 10964 10969 10975 10978 10981 10985 10987 10988 10987 10986 10984 10983
10893 10891 10888 10884 10881 10879 10878 10875 10872 10868 10866 10865 10862 10860 10859 10860 10858 10858 10859 10860 10864 10868 10875 10880 10888 10891 10891 10902 10919 10930 10938 10947 10954 10960 10965 10970 10974 10979 10983 10986 10987 10988 10988 10987 10985
10887 10884 10880 10876 10872 10869 10868 10866 10864 10858 10856 10851 10848 10848 10847 10847 10847 10844 10845 10846 10850 10854 10859 10866 10873 10873 10878 10896 10910 10920 10929 10938 10946 10955 10959 10964 10971 10975 10980 10983 10986 10987 10989 10989 10986
10880 10876 10872 10867 10863 10860 10857 10854 10851 10849 10847 10839 10836 10835 10835 10836 10835 10831 10830 10831 10835 10839 10844 10850 10854 10862 10870 10885 10898 10908 10916 10927 10937 10946 10954 10961 10967 10972 10976 10980 10985 10986 10988 10990 10989
10872 10868 10863 10858 10853 10850 10846 10843 10839 10837 10834 10831 10827 10824 10825 10824 10821 10818 10815 10815 10817 10822 10827 10831 10839 10850 10863 10875 10887 10894 10906 10918 10927 10937 10947 10955 10961 10968 10972 10977 10982 10985 10986 10990 10991
10863 10860 10854 10849 10845 10839 10836 10833 10830 10827 10824 10822 10819 10817 10816 10813 10809 10802 10796 10795 10798 10801 10804 10810 10822 10837 10851 10860 10872 10883 10893 10905 10916 10926 10937 10947 10955 10963 10968 10972 10978 10982 10985 10988 10990
10854 10851 10845 10839 10836 10829 10826 10823 10820 10817 10815 10814 10812 10809 10806 10802 10796 10788 10778 10774 10773 10774 10778 10784 10795 10814 10832 10843 10857 10870 10883 10895 10906 10915 10928 10939 10949 10957 10963 10967 10972 10979 10982 10986 10990
10845 10841 10835 10830 10826 10821 10817 10815 10812 10810 10808 10806 10803 10799 10794 10789 10783 10776 10768 10761 10757 10755 10756 10762 10775 10789 10805 10830 10842 10859 10871 10882 10895 10905 10920 10931 10941 10949 10956 10962 10967 10975 10980 10983 10989
10835 10831 10826 10823 10818 10814 10811 10809 10806 10804 10802 10798 10796 10792 10787 10781 10775 10768 10759 10752 10746 10742 10741 10745 10758 10775 10792 10808 10826 10842 10855 10869 10883 10895 10908 10921 10931 10941 10948 10954 10962 10970 10978 10981 10985
10825 10822 10818 10816 10813 10809 10806 10804 10802 10800 10797 10792 10788 10785 10780 10775 10768 10762 10754 10747 10740 10736 10734 10737 10745 10759 10778 10791 10806 10826 10844 10859 10871 10882 10895 10912 10922 10931 10941 10948 10956 10965 10973 10978 10981
10817 10814 10811 10810 10807 10805 10803 10800 10798 10796 10792 10788 10782 10776 10774 10770 10764 10758 10751 10742 10735 10732 10730 10733 10739 10748 10769 10782 10795 10812 10830 10844 10859 10869 10886 10903 10914 10926 10933 10940 10950 10958 10966 10970 10974
10808 10806 10804 10803 10800 10799 10797 10794 10792 10790 10786 10783 10779 10774 10768 10764 10759 10755 10748 10739 10732 10729 10727 10728 10734 10741 10755 10774 10785 10798 10815 10831 10844 10857 10877 10895 10902 10913 10922 10931 10942 10949 10955 10963 10970
10799 10797 10796 10795 10793 10793 10790 10787 10785 10782 10779 10776 10773 10769 10765 10761 10757 10750 10745 10737 10731 10726 10724 10724 10727 10733 10743 10764 10780 10794 10808 10825 10837 10848 10868 10880 10890 10902 10914 10922 10932 10940 10947 10955 10963
10789 10788 10788 10788 10786 10785 10784 10780 10776 10775 10772 10768 10766 10762 10759 10756 10752 10749 10742 10735 10730 10724 10721 10720 10721 10726 10736 10753 10771 10787 10802 10815 10825 10838 10852 10864 10879 10891 10903 10911 10923 10930 10938 10945 10954
10783 10781 10781 10781 10779 10778 10775 10773 10770 10767 10766 10763 10760 10756 10753 10749 10744 10743 10740 10735 10728 10723 10718 10716 10719 10723 10733 10744 10760 10780 10794 10809 10814 10826 10843 10856 10866 10880 10891 10900 10910 10919 10927 10934 10942
10776 10775 10775 10774 10772 10771 10767 10764 10762 10761 10758 10756 10753 10750 10746 10744 10740 10737 10736 10731 10725 10722 10716 10712 10714 10717 10726 10738 10751 10766 10781 10795 10805 10818 10831 10842 10856 10868 10878 10887 10898 10907 10916 10924 10931
10770 10768 10767 10766 10764 10762 10760 10755 10754 10754 10751 10749 10746 10742 10739 10736 10733 10731 10729 10724 10721 10717 10713 10708 10706 10711 10716 10730 10742 10755 10768 10782 10793 10805 10816 10828 10841 10853 10863 10873 10885 10894 10904 10913 10922
10758 10758 10758 10757 10755 10752 10750 10747 10745 10743 10743 10740 10738 10735 10730 10728 10726 10725 10723 10718 10714 10711 10706 10702 10699 10701 10710 10719 10730 10742 10757 10772 10783 10793 10803 10818 10828 10840 10850 10861 10871 10881 10892 10902 10911
10748 10748 10748 10747 10745 10742 10739 10736 10736 10734 10732 10730 10728 10727 10722 10719 10718 10717 10714 10711 10707 10702 10698 10693 10689 10690 10698 10710 10718 10731 10746 10759 10772 10780 10794 10809 10821 10828 10841 10851 10860 10870 10881 10891 10901